RYR61LJ LEPA-LEZL

Flight info

Callsign RYR61LJ
Flight time 1h 23m
Altitude 35000
Route EPAMA N733 VLC DCT SERRA DCT ASTRO DCT POBOS DCT XEBAR DCT YES DCT BLN
Aircraft B738/M-SDE2E3FGHIRWXY/LB1

Departure

Time 2026-05-04 07:59
Airport Palma de Mallorca Airport (LEPA)

Arrival

Time 2026-05-04 09:23
Airport Seville Airport (LEZL)
Time Latitude Longitude Altitude Speed Heading
2026-05-04 07:33 39.55089 2.73619 37 ft 0 kts 190°
2026-05-04 07:50 39.55100 2.73621 18 ft 3 kts 189°
2026-05-04 07:51 39.55125 2.73621 39 ft 4 kts 161°
2026-05-04 07:51 39.55149 2.73606 35 ft 4 kts 142°
2026-05-04 07:51 39.55163 2.73582 37 ft 4 kts 93°
2026-05-04 07:51 39.55157 2.73550 35 ft 4 kts 60°
2026-05-04 07:52 39.55144 2.73522 36 ft 4 kts 59°
2026-05-04 07:52 39.55134 2.73501 35 ft 0 kts 59°
2026-05-04 07:54 39.55183 2.73814 37 ft 12 kts 35°
2026-05-04 07:55 39.55260 2.73782 37 ft 12 kts 330°
2026-05-04 07:55 39.55331 2.73729 36 ft 12 kts 330°
2026-05-04 07:55 39.55399 2.73674 36 ft 11 kts 329°
2026-05-04 07:55 39.55467 2.73621 37 ft 12 kts 328°
2026-05-04 07:56 39.55546 2.73559 37 ft 15 kts 328°
2026-05-04 07:56 39.55643 2.73509 37 ft 16 kts 19°
2026-05-04 07:56 39.55716 2.73630 37 ft 18 kts 59°
2026-05-04 07:56 39.55786 2.73779 37 ft 20 kts 59°
2026-05-04 07:57 39.55863 2.73941 37 ft 18 kts 58°
2026-05-04 07:57 39.55926 2.74075 37 ft 18 kts 59°
2026-05-04 07:57 39.55991 2.74213 37 ft 16 kts 58°
2026-05-04 07:57 39.56071 2.74289 37 ft 11 kts 27°
2026-05-04 07:58 39.56136 2.74334 35 ft 10 kts 27°
2026-05-04 07:58 39.56204 2.74339 37 ft 10 kts 333°
2026-05-04 07:58 39.56224 2.74261 37 ft 10 kts 249°
2026-05-04 07:58 39.56189 2.74184 37 ft 11 kts 239°
2026-05-04 07:59 39.56050 2.73892 36 ft 74 kts 238°
2026-05-04 07:59 39.55655 2.73056 37 ft 141 kts 238°
2026-05-04 07:59 39.55068 2.71821 362 ft 169 kts 238°
2026-05-04 07:59 39.54430 2.70496 1113 ft 176 kts 236°
2026-05-04 08:00 39.53741 2.69142 1894 ft 188 kts 236°
2026-05-04 08:00 39.52983 2.67650 2400 ft 205 kts 236°
2026-05-04 08:00 39.52191 2.66090 3061 ft 210 kts 236°
2026-05-04 08:02 39.46351 2.54597 8613 ft 224 kts 236°
2026-05-04 08:02 39.45495 2.52906 9414 ft 226 kts 239°
2026-05-04 08:02 39.45043 2.50881 9737 ft 252 kts 269°
2026-05-04 08:03 39.45268 2.48515 10090 ft 274 kts 277°
2026-05-04 08:03 39.45620 2.45986 10328 ft 300 kts 278°
2026-05-04 08:03 39.46021 2.43227 10521 ft 324 kts 278°
2026-05-04 08:03 39.46451 2.40282 10914 ft 339 kts 278°
2026-05-04 08:04 39.46890 2.37250 11623 ft 343 kts 278°
2026-05-04 08:04 39.47326 2.34211 12504 ft 343 kts 278°
2026-05-04 08:04 39.47756 2.31174 13357 ft 344 kts 278°
2026-05-04 08:04 39.48184 2.28124 14121 ft 346 kts 278°
2026-05-04 08:05 39.48606 2.25089 14794 ft 348 kts 278°
2026-05-04 08:05 39.49035 2.21994 15518 ft 350 kts 277°
2026-05-04 08:05 39.49465 2.18881 16226 ft 352 kts 277°
2026-05-04 08:05 39.49895 2.15748 16918 ft 354 kts 277°
2026-05-04 08:06 39.50327 2.12600 17601 ft 357 kts 277°
2026-05-04 08:06 39.50762 2.09423 18287 ft 359 kts 277°
2026-05-04 08:06 39.51198 2.06231 18857 ft 362 kts 276°
2026-05-04 08:06 39.51637 2.03003 19433 ft 364 kts 276°
2026-05-04 08:08 39.54619 1.80940 22955 ft 382 kts 275°
2026-05-04 08:08 39.55075 1.77535 23445 ft 385 kts 275°
2026-05-04 08:10 39.58784 1.49579 26670 ft 401 kts 274°
2026-05-04 08:11 39.59253 1.46010 27041 ft 403 kts 274°
2026-05-04 08:11 39.60184 1.38810 27755 ft 405 kts 272°
2026-05-04 08:11 39.60250 1.35192 28085 ft 400 kts 262°
2026-05-04 08:12 39.60028 1.31599 28582 ft 398 kts 261°
2026-05-04 08:12 39.59801 1.28043 29178 ft 394 kts 261°
2026-05-04 08:12 39.59582 1.24516 29748 ft 391 kts 261°
2026-05-04 08:12 39.59371 1.21012 30212 ft 389 kts 261°
2026-05-04 08:13 39.59165 1.17517 30596 ft 388 kts 261°
2026-05-04 08:13 39.58964 1.14027 30977 ft 387 kts 261°
2026-05-04 08:13 39.58765 1.10553 31388 ft 385 kts 261°
2026-05-04 08:13 39.58566 1.07090 31789 ft 384 kts 261°
2026-05-04 08:14 39.58368 1.03646 32162 ft 383 kts 261°
2026-05-04 08:14 39.58170 1.00209 32536 ft 382 kts 261°
2026-05-04 08:14 39.57971 0.96784 32923 ft 380 kts 261°
2026-05-04 08:16 39.56566 0.73082 34989 ft 378 kts 261°
2026-05-04 08:16 39.56152 0.66243 34982 ft 381 kts 261°
2026-05-04 08:17 39.55742 0.59499 34981 ft 374 kts 261°
2026-05-04 08:17 39.55332 0.52803 34992 ft 372 kts 261°
2026-05-04 08:19 39.53651 0.26035 34995 ft 373 kts 260°
2026-05-04 08:20 39.53214 0.19335 34991 ft 373 kts 260°
2026-05-04 08:20 39.52774 0.12637 34993 ft 374 kts 260°
2026-05-04 08:21 39.52332 0.05974 34983 ft 374 kts 260°
2026-05-04 08:21 39.51885 -0.00738 34984 ft 374 kts 260°
2026-05-04 08:22 39.51433 -0.07442 34993 ft 374 kts 260°
2026-05-04 08:24 39.49650 -0.33397 34991 ft 374 kts 260°
2026-05-04 08:24 39.49181 -0.40102 34997 ft 374 kts 260°
2026-05-04 08:25 39.48222 -0.46647 35003 ft 368 kts 248°
2026-05-04 08:25 39.46092 -0.52583 34988 ft 366 kts 236°
2026-05-04 08:27 39.33768 -0.73548 34993 ft 367 kts 233°
2026-05-04 08:28 39.30679 -0.78790 34997 ft 366 kts 233°
2026-05-04 08:28 39.27588 -0.84025 35005 ft 367 kts 233°
2026-05-04 08:29 39.24481 -0.89270 34996 ft 368 kts 233°
2026-05-04 08:31 39.11999 -1.10248 34999 ft 370 kts 233°
2026-05-04 08:33 38.99529 -1.31087 35013 ft 369 kts 233°
2026-05-04 08:35 38.86975 -1.51979 35024 ft 369 kts 233°
2026-05-04 08:35 38.83829 -1.57195 35011 ft 370 kts 233°
2026-05-04 08:37 38.72810 -1.75398 35019 ft 369 kts 233°
2026-05-04 08:38 38.69655 -1.80585 35011 ft 369 kts 233°
2026-05-04 08:38 38.66520 -1.85727 35008 ft 369 kts 233°
2026-05-04 08:40 38.53919 -2.06333 35015 ft 367 kts 233°
2026-05-04 08:41 38.50779 -2.11448 35011 ft 367 kts 233°
2026-05-04 08:41 38.47632 -2.16573 35016 ft 367 kts 233°
2026-05-04 08:42 38.44483 -2.21697 35009 ft 367 kts 233°
2026-05-04 08:42 38.41327 -2.26826 35011 ft 368 kts 233°
2026-05-04 08:43 38.38211 -2.31946 35016 ft 368 kts 237°
2026-05-04 08:43 38.35920 -2.37752 35017 ft 368 kts 248°
2026-05-04 08:44 38.34649 -2.44081 35024 ft 370 kts 256°
2026-05-04 08:46 38.30589 -2.69870 35036 ft 372 kts 255°
2026-05-04 08:46 38.29550 -2.76320 35027 ft 372 kts 255°
2026-05-04 08:47 38.28508 -2.82762 35040 ft 371 kts 255°
2026-05-04 08:47 38.27463 -2.89196 35039 ft 371 kts 255°
2026-05-04 08:48 38.26416 -2.95627 35034 ft 371 kts 255°
2026-05-04 08:48 38.25363 -3.02066 35028 ft 371 kts 255°
2026-05-04 08:49 38.24313 -3.08469 35029 ft 369 kts 255°
2026-05-04 08:50 38.20630 -3.30740 35036 ft 367 kts 255°
2026-05-04 08:51 38.19570 -3.37094 35032 ft 368 kts 255°
2026-05-04 08:51 38.18508 -3.43448 35024 ft 364 kts 255°
2026-05-04 08:52 38.17990 -3.46541 35018 ft 352 kts 255°
2026-05-04 08:52 38.17484 -3.49562 35020 ft 348 kts 255°
2026-05-04 08:52 38.16472 -3.55565 34846 ft 349 kts 255°
2026-05-04 08:53 38.15966 -3.58564 34624 ft 344 kts 255°
2026-05-04 08:54 38.11958 -3.78379 32014 ft 320 kts 252°
2026-05-04 08:55 38.11570 -3.80187 31773 ft 319 kts 252°
2026-05-04 08:55 38.10990 -3.82893 31412 ft 316 kts 252°
2026-05-04 08:55 38.10416 -3.85575 31058 ft 314 kts 252°
2026-05-04 08:55 38.09846 -3.88240 30705 ft 312 kts 252°
2026-05-04 08:57 38.05949 -4.06425 28180 ft 307 kts 253°
2026-05-04 09:01 37.98278 -4.41839 23184 ft 293 kts 253°
2026-05-04 09:01 37.97736 -4.44321 22808 ft 292 kts 253°
2026-05-04 09:01 37.97196 -4.46791 22451 ft 289 kts 253°
2026-05-04 09:01 37.96660 -4.49238 22126 ft 287 kts 253°
2026-05-04 09:02 37.96128 -4.51665 21766 ft 285 kts 253°
2026-05-04 09:02 37.95607 -4.54039 21455 ft 283 kts 253°
2026-05-04 09:02 37.95081 -4.56433 21111 ft 281 kts 253°
2026-05-04 09:02 37.94559 -4.58808 20786 ft 279 kts 253°
2026-05-04 09:03 37.94040 -4.61168 20468 ft 277 kts 253°
2026-05-04 09:03 37.93521 -4.63518 20142 ft 277 kts 253°
2026-05-04 09:03 37.93005 -4.65859 19812 ft 276 kts 253°
2026-05-04 09:03 37.92489 -4.68194 19502 ft 274 kts 253°
2026-05-04 09:04 37.91977 -4.70512 19175 ft 273 kts 253°
2026-05-04 09:04 37.91464 -4.72829 18865 ft 273 kts 253°
2026-05-04 09:04 37.90953 -4.75138 18537 ft 272 kts 253°
2026-05-04 09:04 37.90441 -4.77446 18203 ft 272 kts 253°
2026-05-04 09:05 37.89931 -4.79743 17857 ft 271 kts 253°
2026-05-04 09:05 37.89423 -4.82031 17536 ft 269 kts 253°
2026-05-04 09:05 37.88919 -4.84297 17211 ft 267 kts 253°
2026-05-04 09:05 37.88417 -4.86552 16903 ft 266 kts 253°
2026-05-04 09:06 37.87912 -4.88818 16582 ft 268 kts 253°
2026-05-04 09:07 37.84386 -5.04581 14399 ft 262 kts 253°
2026-05-04 09:08 37.83888 -5.06796 14090 ft 261 kts 253°
2026-05-04 09:08 37.83393 -5.09001 13787 ft 260 kts 253°
2026-05-04 09:08 37.82902 -5.11180 13446 ft 261 kts 253°
2026-05-04 09:08 37.82403 -5.13397 13130 ft 263 kts 253°
2026-05-04 09:09 37.81901 -5.15623 12816 ft 262 kts 254°
2026-05-04 09:09 37.81402 -5.17833 12502 ft 261 kts 254°
2026-05-04 09:09 37.80904 -5.20039 12194 ft 260 kts 254°
2026-05-04 09:09 37.80409 -5.22231 11892 ft 259 kts 254°
2026-05-04 09:10 37.79914 -5.24416 11584 ft 258 kts 254°
2026-05-04 09:10 37.79423 -5.26587 11297 ft 256 kts 254°
2026-05-04 09:10 37.78931 -5.28757 10996 ft 257 kts 254°
2026-05-04 09:10 37.78436 -5.30942 10701 ft 261 kts 254°
2026-05-04 09:11 37.77933 -5.33155 10384 ft 262 kts 254°
2026-05-04 09:11 37.77430 -5.35364 10180 ft 259 kts 254°
2026-05-04 09:11 37.76933 -5.37522 9960 ft 255 kts 251°
2026-05-04 09:11 37.76064 -5.39455 9677 ft 254 kts 231°
2026-05-04 09:12 37.74781 -5.40995 9394 ft 254 kts 224°
2026-05-04 09:12 37.73440 -5.42472 9108 ft 257 kts 224°
2026-05-04 09:14 37.64093 -5.52853 7152 ft 253 kts 222°
2026-05-04 09:14 37.62751 -5.54289 6882 ft 253 kts 222°
2026-05-04 09:14 37.61419 -5.55712 6614 ft 252 kts 222°
2026-05-04 09:14 37.60072 -5.57152 6335 ft 252 kts 222°
2026-05-04 09:15 37.58738 -5.58581 6049 ft 252 kts 222°
2026-05-04 09:15 37.57404 -5.60009 5773 ft 251 kts 222°
2026-05-04 09:15 37.56070 -5.61436 5462 ft 252 kts 222°
2026-05-04 09:15 37.54704 -5.62812 5196 ft 253 kts 212°
2026-05-04 09:17 37.42099 -5.61722 3490 ft 221 kts 242°
2026-05-04 09:18 37.41829 -5.63536 3437 ft 207 kts 274°
2026-05-04 09:18 37.41901 -5.65320 3333 ft 205 kts 270°
2026-05-04 09:18 37.41898 -5.67110 3086 ft 203 kts 269°
2026-05-04 09:18 37.41887 -5.68834 2970 ft 192 kts 269°
2026-05-04 09:19 37.41876 -5.70483 2765 ft 187 kts 269°
2026-05-04 09:19 37.41867 -5.72103 2531 ft 183 kts 269°
2026-05-04 09:19 37.41859 -5.73698 2290 ft 181 kts 270°
2026-05-04 09:19 37.41852 -5.75273 2031 ft 178 kts 269°
2026-05-04 09:20 37.41845 -5.76787 1799 ft 166 kts 270°
2026-05-04 09:20 37.41838 -5.78193 1611 ft 153 kts 269°
2026-05-04 09:20 37.41833 -5.79460 1387 ft 138 kts 269°
2026-05-04 09:20 37.41827 -5.80667 1198 ft 138 kts 270°
2026-05-04 09:21 37.41823 -5.81867 1025 ft 137 kts 270°
2026-05-04 09:21 37.41817 -5.83070 835 ft 137 kts 271°
2026-05-04 09:21 37.41813 -5.84275 655 ft 138 kts 271°
2026-05-04 09:21 37.41812 -5.85473 467 ft 140 kts 270°
2026-05-04 09:22 37.41800 -5.86715 300 ft 140 kts 270°
2026-05-04 09:22 37.41795 -5.87914 129 ft 136 kts 270°
2026-05-04 09:22 37.41796 -5.89011 102 ft 109 kts 270°
2026-05-04 09:22 37.41793 -5.89798 97 ft 70 kts 270°
2026-05-04 09:23 37.41792 -5.90201 96 ft 23 kts 270°
2026-05-04 09:23 37.41850 -5.90303 96 ft 14 kts 355°
2026-05-04 09:23 37.41929 -5.90303 94 ft 11 kts 360°
2026-05-04 09:23 37.42002 -5.90304 93 ft 10 kts 359°
2026-05-04 09:25 37.42207 -5.89829 94 ft 9 kts 45°
2026-05-04 09:25 37.42240 -5.89788 93 ft 4 kts 45°
2026-05-04 09:26 37.42259 -5.89765 93 ft 4 kts 45°
2026-05-04 09:26 37.42279 -5.89745 93 ft 4 kts 28°
2026-05-04 09:26 37.42303 -5.89730 93 ft 4 kts 28°
2026-05-04 09:26 37.42324 -5.89711 93 ft 4 kts 39°
2026-05-04 09:27 37.42351 -5.89680 93 ft 7 kts 37°
2026-05-04 09:27 37.42396 -5.89688 93 ft 7 kts 317°
2026-05-04 09:27 37.42414 -5.89712 93 ft 3 kts 314°
2026-05-04 09:27 37.42437 -5.89723 93 ft 4 kts 350°
2026-05-04 09:28 37.42464 -5.89709 93 ft 5 kts 66°
2026-05-04 09:28 37.42463 -5.89690 94 ft 0 kts 98°
2026-05-04 09:28 37.42462 -5.89686 94 ft 0 kts 98°
2026-05-04 09:28 37.42462 -5.89685 94 ft 0 kts 98°